This demonstration page uses our WeatherBlox Daily Observations layout. Learn more.

Left ArrowRight Arrow

41.86663, -103.66717

Hourly Observations for January 11, 2017

Temp ( °F °C ) Dew Point ( °F °C ) Humidity (%) Winds ( mph kmh ) Pressure ( in mb ) Visibility ( mi km ) Precip ( " mm )
12:53 am 00:53 Clear 46 7.8 26 -3.3 46 46 S 10 17 29.47 998 10 16 0.00 0.00
1:53 am 01:53 Clear 42 5.6 24 -4.4 49 49 S 13 20 29.47 998 10 16 0.00 0.00
2:53 am 02:53 Clear 43 6.1 25 -3.9 49 49 SSW 9 15 29.47 998 10 16 0.00 0.00
3:53 am 03:53 Clear 23 -5 17 -8.3 78 78 NNE 30 48 29.57 1001 10 16 0.00 0.00
4:53 am 04:53 Clear 16 -8.9 10 -12.2 77 77 NNE 25 41 29.64 1004 10 16 0.00 0.00
5:53 am 05:53 Mostly Cloudy 12 -11.1 6 -14.4 77 77 NNE 12 19 29.73 1007 10 16 0.00 0.00
6:53 am 06:53 Cloudy 10 -12.2 4 -15.6 76 76 NNE 10 17 29.77 1008 9 14 0.00 0.00
7:53 am 07:53 Cloudy with Haze 9 -12.8 3 -16.1 77 77 NE 16 26 29.80 1009 6 10 0.00 0.00
8:27 am 08:27 Cloudy with Light Snow 9 -12.8 4 -15.6 80 80 NE 9 15 30.00 1016 3 4 0.00 0.03
8:53 am 08:53 Cloudy with Light Snow 10 -12.2 4 -15.6 76 76 ENE 8 13 29.80 1009 2 3 0.00 0.03
9:53 am 09:53 Cloudy with Light Snow 11 -11.7 4 -15.6 73 73 ENE 8 13 29.79 1009 3 4 0.00 0.03
10:21 am 10:21 Cloudy with Light Snow 11 -11.7 5 -15 77 77 NE 6 9 30.00 1016 3 5 0.00 0.03
10:42 am 10:42 Cloudy with Light Snow 10 -12 3 -16 72 72 E 5 7 30.00 1016 4 6 0.00 0.00
10:53 am 10:53 Cloudy with Light Snow 11 -11.7 3 -16.1 70 70 ENE 10 17 29.79 1009 4 6 0.00 0.03
11:53 am 11:53 Cloudy 11 -11.7 3 -16.1 70 70 E 8 13 29.77 1008 7 11 0.00 0.03
12:29 pm 12:29 Cloudy with Light Snow 12 -11.1 4 -15.6 70 70 ESE 8 13 29.97 1015 2 3 0.00 0.03
12:46 pm 12:46 Cloudy with Light Snow 12 -11 3 -16 67 67 E 9 15 29.97 1015 3 5 0.00 0.00
12:53 pm 12:53 Cloudy with Light Snow 12 -11.1 4 -15.6 70 70 E 9 15 29.74 1007 5 8 0.00 0.03
1:28 pm 13:28 Mostly Cloudy 12 -11 5 -15 73 73 ESE 12 19 29.94 1014 10 16 0.00 0.00
1:45 pm 13:45 Mostly Cloudy 13 -10.6 5 -15 70 70 ESE 9 15 29.94 1014 10 16 0.00 0.03
1:53 pm 13:53 Mostly Cloudy 13 -10.6 5 -15 70 70 E 9 15 29.73 1007 10 16 0.00 0.03
2:53 pm 14:53 Cloudy 13 -10.6 4 -15.6 67 67 E 13 20 29.75 1008 10 16 0.00 0.00
3:53 pm 15:53 Cloudy 13 -10.6 5 -15 70 70 E 14 22 29.82 1010 10 16 0.00 0.00
4:53 pm 16:53 Cloudy 13 -10.6 5 -15 70 70 E 12 19 29.84 1011 10 16 0.00 0.00
5:53 pm 17:53 Cloudy 13 -10.6 5 -15 70 70 ESE 12 19 29.88 1012 10 16 0.00 0.00
6:26 pm 18:26 Partly Cloudy 12 -11 5 -15 73 73 ESE 13 20 30.03 1017 10 16 0.00 0.00
6:53 pm 18:53 Clear 13 -10.6 6 -14.4 74 74 ESE 16 26 29.90 1012 10 16 0.00 0.00
7:53 pm 19:53 Clear 13 -10.6 6 -14.4 74 74 ESE 9 15 29.93 1014 10 16 0.00 0.00
8:53 pm 20:53 Clear 13 -10.6 7 -13.9 77 77 E 8 13 29.94 1014 10 16 0.00 0.00
9:53 pm 21:53 Cloudy 13 -10.6 7 -13.9 77 77 ESE 13 20 29.93 1014 10 16 0.00 0.00
10:53 pm 22:53 Mostly Cloudy 12 -11.1 7 -13.9 80 80 E 8 13 29.95 1014 9 14 0.00 0.00
11:29 pm 23:29 Partly Cloudy 11 -11.7 6 -14.4 81 81 ESE 6 9 30.06 1018 10 16 0.00 0.00
11:53 pm 23:53 Partly Cloudy 12 -11.1 6 -14.4 77 77 E 7 11 29.98 1015 9 14 0.00 0.00

Powered by AerisWeather